STARLINK-31953, 59898

Orbit data source: Space-Track

STARLINK-31953, 59898 is a payload satellite owned by SpaceX/Seattle (US) in LEO that was launched on Tue, 28 May 2024 UTC via an FALCON 9 launch vehicle from the Air Force Eastern Test Range (AFETR). Payload-class satellites include a variety of spacecraft equipped with specific instruments for various scientific and technological missions. These include communications satellites like Starlink; space stations such as the ISS; scientific satellites like the Hubble; Earth observation satellites from companies like Planet Labs, Umbra, and HawkEye 360; GPS; miniature CubeSats for education and research; and military/defense satellites.

Loading next visibility...
Identifier
59898, 2024-100P
Orbit
LEO
Country
Flag of USUS
Related business
Manufacturer
SpaceX/Seattle
Mission
Operational Commercial Communications
Bus & Motor
STARLINK V2M, Unknown motor
Mass
730 kg wet, ~700 kg dry
Launch date (UTC)
2024-05-28 (2 years ago)
Launch vehicle
FALCON 9
Launch site
Air Force Eastern Test Range (AFETR)
Object type
Payload
Rocket body
Debris
Shape & HBR
Box + 2 Pan, 17.7 m
Radar Cross Section
33.884 m², Large (>1 m²)

Expand to show TLE details & history
Last TLE update: 14 hours ago

TLE from 14 hours ago
0 STARLINK-31953
1 59898U 24100P   26036.11025755 -.00000200  00000-0  22574-5 0  9997
2 59898  43.0026 305.9864 0001433 283.4005  76.6687 15.27579355 96211
Epoch: 2026-02-05T02:38Z
TLE epoch observation values (Epoch: 2026-02-05T02:38:46.252Z)
Latitude
-0°
Longitude
131.02649°
Altitude
482.6 km
Speed
7.626 km/s
True Right ascension
20h 23m 56s
True Declination
0° 00' 00"
Sunlit
Object was in daylight at epoch
Visualization orbit readout
Latitude
Unknown
Longitude
Unknown
Altitude
Unknown
Speed
Unknown
Apparent Right ascension
Unknown
Apparent Declination
Unknown
Sunlit
N/A
Visualization observer readout
Local Sidereal Time
18:48:09
Azimuth
Unknown
Elevation
Unknown
Doppler factor
Unknown
Orbital elements
Apogee altitude
485.979 km
Perigee altitude
484.012 km
Semi-major axis
6,863.133 km
Eccentricity
0.00014
Inclination
43.0026°
RAAN
305.9864°
Arg. of periapsis
283.4005°
True anomaly
76.68468°
Mean anomaly
76.6687°
Eccentric anomaly
76.67669°
Mean motion
3.81733 °/min
Orbital period
94.31 mins
BSTAR
0.0000022574
Loading maneuver chart data...
Computing Atmospheric mass density...
Loading historical data...
Loading historical data...
Loading historical data...
Loading historical data...
Loading historical data...
Loading historical data...
Loading historical data...

Documentation

Showing up to 5 results
|